Flag for Germany Weather past 2 weeks in Burgdorf, Lower Saxony, Germany

Now
39 °F

Passing clouds.


Feels Like: 31 °F
Forecast: 35 / 45 °F
Wind: 14 mph from Northwest

Location: Celle Airport

Current Time: Mar 5, 2015 at 12:49:34 AM

Latest Report: Mar 4, 2015 at 11:20 PM


Visibility: N/A

Pressure: 30.27 "Hg

Humidity: 87%

Dew point: 36 °F

Location of BurgdorfLocation

Historic Weather in Burgdorf — Graph

°F

Burgdorf temperature yesterday

Maximum temperature yesterday: 43 °F (at 2:20 PM)
Minimum temperature yesterday: 34 °F (at 5:20 AM)
Average temperature yesterday: 38 °F

Past Weeks' High & Low Weather Summary

 TemperatureHumidityPressure
High48 °F (Feb 26, 3:20 PM)100% (Feb 17, 11:20 PM)30.74 "Hg (Feb 17, 11:20 PM)
Low25 °F (Feb 19, 4:20 AM)40% (Feb 28, 4:20 PM)29.30 "Hg (Feb 21, 9:20 AM)
Average39 °F80%29.90 "Hg
* Reported Feb 17 11:20 PM — Mar 4 11:20 PM, Burgdorf, Weather by CustomWeather, © 2015

Note: Actual official high and low records may vary slightly from our data, if they occured in-between our weather recording intervals... More about our weather records

Advertising

Burgdorf weather history for previous 24 hours

 ConditionsComfort  
Time TempWeatherWind HumidityBarometerVisibility
11:20 PM
Wed, Mar 4
39 °FPassing clouds.14 mph87%30.27 "HgN/A
10:20 PM39 °FSprinkles. Passing clouds.10 mph93%30.21 "Hg6 mi
9:20 PM37 °FSprinkles. Partly cloudy.9 mph93%30.21 "HgN/A
8:20 PM37 °FSprinkles. Partly cloudy.10 mph93%30.18 "Hg5 mi
7:54 PM37 °FSprinkles. Passing clouds.14 mph93%30.18 "HgN/A
7:20 PM37 °FSprinkles. Partly cloudy.13 mph93%30.18 "HgN/A
7:00 PM37 °FPartly cloudy.14 mph93%30.18 "Hg6 mi
6:20 PM39 °FRain showers. Partly cloudy.9 mph81%30.15 "Hg3 mi
5:20 PM41 °FScattered clouds.17 mph76%30.15 "HgN/A
4:20 PM41 °FScattered clouds.16 mph76%30.15 "HgN/A
3:20 PM43 °FScattered clouds.25 mph71%30.12 "HgN/A
2:20 PM43 °FPartly sunny.21 mph71%30.12 "HgN/A
1:20 PM41 °FPartly sunny.18 mph76%30.12 "HgN/A
12:20 PM41 °FSprinkles. Partly sunny.17 mph76%30.12 "HgN/A
11:20 AM41 °FPartly sunny.18 mph76%30.12 "HgN/A
10:20 AM39 °FPartly sunny.18 mph81%30.09 "HgN/A
9:20 AM37 °FSprinkles. Partly sunny.18 mph81%30.09 "HgN/A
8:20 AM36 °FBroken clouds.13 mph87%30.07 "HgN/A
7:45 AM34 °FPartly sunny.9 mph87%30.07 "HgN/A
7:20 AM34 °FPassing clouds.10 mph87%30.07 "HgN/A
6:20 AM34 °FPassing clouds.9 mph87%30.04 "HgN/A
5:20 AM34 °FPassing clouds.9 mph87%30.04 "HgN/A
4:20 AM36 °FPassing clouds.13 mph81%30.04 "HgN/A
3:20 AM36 °FPassing clouds.12 mph87%30.01 "HgN/A
2:20 AM36 °FPassing clouds.9 mph87%30.01 "HgN/A
1:20 AM36 °FPassing clouds.9 mph87%29.98 "HgN/A
12:20 AM36 °FPassing clouds.12 mph93%29.98 "HgN/A
Weather by CustomWeather, © 2015

See weather overviewHow to use our weather pages